SCP
-0 0 0 0 0 0 0 0 0 0 0 0 0 0 0 0 -0 0 0 0 0 0 0 0 0 0 0 0 0 0 0 0 0 0 0 0 0 0 0 0 0 0 0 0 0 0 0 0 0 0 0 0 0 0
-0 -0 0 0 0 0 0 0 0 0 0 0 0 0 0 -0 -0 0 0 0 0 0 0 0 0 0 0 0 0 0 0 0 0 0 0 0 0 0 0 0 0 0 0 0 0 0 0 0 0 0 0 0 0 0
-0 0 0 0 0 0 0 0 0 0 0 0 0 0 0 0 0 0 0 0 0 0 0 0 0 0 0 0 0 0 0 0 0 0 0 0 0 0 0 0 0 0 0 0 0 0 0 0 0 0 0 0 0 0
0 0 0 0 0 0 0 0 0 0 0 0 0 0 0 0 0 0 0 0 0 0 0 0 0 0 0 0 0 0 0 0 0 0 0 0 0 0 0 0 0 0 0 0 0 0 0 0 0 0 0 0 0 0
0 0 0 0 0 0 0 0 0 0 0 0 0 0 0 0 0 0 0 0 0 0 0 0 0 0 0 0 0 0 0 0 0 0 0 0 0 0 0 0 0 0 0 0 0 0 0 0 0 0 0 0 0 0
0 0 0 0 0 0 0 0 0 0 0 0 0 0 0 0 0 0 0 0 0 0 0 0 0 0 0 0 0 0 0 0 0 0 0 0 0 0 0 0 0 0 0 0 0 0 0 0 0 0 0 0 0 0
0 0 0 0 0 0 0 0 0 0 0 0 0 0 0 0 0 0 0 0 0 0 0 0 0 0 0 0 0 0 0 0 0 0 0 0 0 0 0 0 0 0 0 0 0 0 0 0 0 0 0 0 0 0
0 0 0 0 0 0 0 0 0 0 0 0 0 0 0 0 0 0 0 0 0 0 0 0 0 0 0 0 0 0 0 0 0 0 0 0 0 0 0 0 0 0 0 0 0 0 0 0 0 0 0 0 0 0
0 0 0 0 0 0 0 0 0 0 0 0 0 0 0 0 0 0 0 0 0 0 0 0 0 0 0 0 0 0 0 0 0 0 0 0 0 0 0 0 0 0 0 0 0 0 0 0 0 0 0 0 0 0
0 0 0 0 0 0 0 0 0 0 0 0 0 0 0 0 0 0 0 0 0 0 0 0 0 0 0 0 0 0 0 0 0 0 0 0 0 0 0 0 0 0 0 0 0 0 0 0 0 0 0 0 0 0
0 0 0 0 0 0 0 0 0 -0 0 0 0 -0 0 0 0 0 0 0 0 0 0 0 0 0 0 0 0 0 0 0 0 0 0 0 0 0 0 0 0 0 0 0 0 0 0 0 0 0 0 0 0 0
0 0 0 0 0 0 0 -0 -0 0 0 0 0 0 0 0 0 0 0 0 0 0 0 0 0 0 0 0 0 0 0 0 0 0 0 0 0 0 0 0 0 0 0 0 0 0 0 0 0 0 0 0 0 0
0 0 0 0 0 0 -0 0 0 0 0 0 0 0 0 0 0 0 0 0 0 0 0 0 0 0 0 0 0 0 0 0 0 0 0 0 0 0 0 0 0 0 0 0 0 0 0 0 0 0 0 0 0 0
0 0 0 0 0 0 0 0 0 0 0 0 0 0 0 0 0 0 0 0 0 0 0 0 0 0 0 0 0 0 0 0 0 0 0 0 0 0 0 0 0 0 0 0 0 0 0 0 0 0 0 0 0 0
0 0 0 0 0 0 -0 0 0 0 0 0 0 0 0 0 0 0 0 0 0 0 0 0 0 0 0 0 0 0 0 0 0 0 0 0 0 0 0 0 0 0 0 0 0 0 0 0 0 0 0 0 0 0
0 0 0 0 0 0 0 0 0 0 0 0 0 0 0 0 0 0 0 0 0 0 0 0 0 0 0 0 0 0 0 0 0 0 0 0 0 0 0 0 0 0 0 0 0 0 0 0 0 0 0 0 0 0
0 0 0 0 0 0 0 0 0 0 0 0 0 0 0 0 0 0 0 0 0 0 0 0 0 0 0 0 0 0 0 0 0 0 0 0 0 0 0 0 0 0 0 0 0 0 0 0 0 0 0 0 0 0
0 0 0 0 0 0 0 0 0 0 0 0 0 0 0 0 0 0 0 0 0 0 0 0 0 0 0 0 0 0 0 0 0 0 0 0 0 0 0 0 0 0 0 0 0 0 0 0 0 0 0 0 0 0
0 0 0 0 0 0 0 0 0 0 0 0 0 0 0 0 0 0 0 0 0 0 0 0 0 0 0 0 0 0 0 0 0 0 0 0 0 0 0 0 0 0 0 0 0 0 0 0 0 0 0 0 0 0
-0 -0 -0 -0 -0 0 0 0 0 0 0 0 0 0 0 0 0 0 0 0 0 0 0 0 0 0 0 0 0 0 0 0 0 0 0 0 0 0 0 0 0 0 0 0 0 0 0 0 0 0 0 0 0 0
-0 0 -0 0 0 0 0 0 0 0 0 0 0 0 0 0 0 0 0 0 0 0 0 0 0 0 0 0 0 0 0 0 0 0 0 0 0 0 0 0 0 0 0 0 0 0 0 0 0 0 0 0 0 0
0 0 0 0 0 0 0 0 0 0 0 0 0 0 0 0 0 0 0 0 0 0 0 0 0 0 0 0 0 0 0 0 0 0 0 0 0 0 0 0 0 0 0 0 0 0 0 0 0 0 0 0 0 0
0 0 0 0 0 0 0 0 0 0 0 0 0 0 0 0 0 0 0 0 0 0 0 0 0 0 0 0 0 0 0 0 0 0 0 0 0 0 0 0 0 0 0 0 0 0 0 0 0 0 0 0 0 -0
0 0 0 0 0 0 0 0 0 0 0 0 0 0 0 0 0 0 0 0 0 0 0 0 0 0 0 0 0 0 0 0 0 0 0 0 0 0 0 0 0 0 0 0 0 0 0 0 0 0 0 0 -0 -0
0 0 0 0 0 0 0 0 0 0 0 0 0 0 0 0 0 0 0 0 0 0 0 0 0 0 0 0 0 0 0 0 0 0 0 0 0 0 0 0 0 0 0 0 0 0 0 0 0 0 0 0 0 -0
0 0 0 0 0 0 0 0 0 0 0 0 0 0 0 0 0 0 0 0 0 0 0 0 0 0 0 0 0 0 0 0 0 0 0 0 0 0 0 0 0 0 0 0 0 0 0 0 0 0 0 0 0 -0
0 0 0 0 0 0 0 0 0 0 0 0 0 0 0 0 0 0 0 0 0 0 0 0 0 0 0 0 0 0 0 0 0 0 0 0 0 0 0 0 0 0 0 0 0 0 0 0 0 0 0 0 0 0
0 0 0 0 0 0 0 0 0 0 0 0 0 0 0 0 0 0 0 0 0 0 0 0 0 0 0 0 0 0 0 0 0 0 0 0 0 0 0 0 0 0 0 0 0 0 0 0 0 0 0 0 0 0
0 0 0 0 0 0 0 0 0 0 0 0 0 0 0 0 0 0 0 0 0 0 0 0 0 0 0 0 0 0 0 0 0 0 0 0 0 0 0 0 0 0 0 0 0 0 0 0 0 0 0 0 0 0
0 0 0 0 0 0 0 0 0 0 0 0 0 0 0 0 0 0 0 0 0 0 0 0 0 0 0 0 0 0 0 0 0 0 0 0 0 0 0 0 0 0 0 0 0 0 0 0 0 0 0 0 0 0
0 0 0 0 0 0 0 0 0 0 0 0 0 0 0 0 0 0 0 0 0 0 0 0 0 0 0 0 0 0 0 0 0 0 0 0 0 0 0 0 0 0 0 0 0 0 0 0 0 0 0 0 0 0
0 0 0 0 0 0 0 0 0 0 0 0 0 0 0 0 0 0 0 0 0 0 0 0 0 0 0 0 0 0 0 0 0 0 0 0 0 0 0 0 0 0 0 0 0 0 0 0 0 0 0 0 0 0
0 0 0 0 0 0 0 0 0 0 0 0 0 0 0 0 0 0 0 0 0 0 0 0 0 0 0 0 0 0 0 0 0 0 0 0 0 0 0 0 0 0 0 0 0 0 0 0 0 0 0 0 0 0
Wind_Speed_500mb
62 51 51 67 71 67 65 63 60 62 61 53 48 47 46 48 51 53 47 56 37 5 17 36 52 45 46 48 15 21 16 4 5 11 12 8 9 12 10 21 18 19 20 11 6 17 20 30 12 14 14 30 30 25
61 21 38 57 60 64 64 60 62 62 58 49 47 47 49 58 53 61 39 43 63 12 9 27 30 43 47 55 38 53 20 16 12 8 6 9 6 9 14 13 8 15 13 11 16 8 6 33 0 15 22 32 26 31
54 15 37 49 52 56 60 60 59 53 49 44 42 40 47 52 56 53 42 42 42 20 12 14 14 29 46 52 37 26 15 31 18 12 9 5 8 7 11 10 16 9 4 5 5 9 10 15 10 22 25 29 32 35
18 34 37 29 60 52 64 55 51 46 42 41 41 45 50 53 55 59 44 42 42 29 7 7 20 21 33 38 46 33 29 26 28 14 8 5 5 5 8 6 10 6 21 11 3 1 5 10 13 27 33 42 45 36
5 12 19 28 37 38 41 42 39 39 41 42 44 50 42 44 53 45 42 57 62 17 7 15 24 14 23 28 31 31 38 35 17 7 4 4 9 8 3 4 9 14 10 15 11 23 13 22 30 36 47 49 41 35
15 17 20 20 23 28 31 33 37 40 41 47 52 52 52 47 52 45 12 61 55 31 19 7 9 18 27 31 38 39 35 29 14 9 7 7 8 3 8 8 6 19 18 14 7 26 17 24 37 43 51 44 34 28
21 19 20 24 29 32 34 34 35 42 44 49 52 54 55 55 62 31 9 39 57 42 16 8 8 16 37 35 27 22 25 14 10 11 6 7 6 6 6 7 9 22 19 15 19 27 14 29 28 43 44 29 23 19
26 25 22 23 30 42 41 39 38 41 48 54 50 49 60 57 57 33 3 70 52 27 14 8 6 7 17 10 8 11 9 12 11 8 8 6 8 1 7 6 10 17 21 22 27 16 11 26 17 34 27 25 21 20
27 31 29 30 32 42 45 42 41 42 45 49 43 41 55 57 34 26 70 62 40 14 8 5 14 9 19 11 10 9 8 6 6 3 6 9 6 10 6 19 32 31 33 31 31 27 21 18 20 21 20 20 22 24
22 25 32 31 35 41 42 43 42 41 40 42 41 33 13 43 65 84 31 10 9 5 7 6 3 8 10 10 6 7 8 5 4 4 3 3 6 5 9 17 23 24 29 23 19 26 29 29 28 22 20 20 22 26
18 21 29 32 34 41 42 47 44 43 49 44 24 5 76 83 53 11 8 5 6 6 7 7 6 14 9 8 7 6 6 3 9 6 7 6 7 10 27 30 28 29 30 30 28 30 28 28 27 27 27 32 36 42
12 28 37 39 42 45 48 49 47 39 29 29 41 51 46 12 13 11 5 6 6 9 7 9 13 15 13 12 8 4 6 4 7 8 6 6 8 20 38 37 33 31 30 26 24 23 24 25 29 35 40 45 47 47
19 27 34 38 35 35 39 38 52 38 46 81 35 7 8 5 6 10 10 6 9 11 17 19 13 13 11 12 9 5 7 4 9 7 8 5 8 18 24 26 29 29 27 25 24 26 29 31 34 37 38 39 42 45
27 30 29 28 31 20 33 34 57 58 26 8 7 10 2 5 2 4 7 12 11 33 44 37 16 6 8 8 4 8 4 5 8 8 10 6 18 25 23 23 23 19 19 19 18 18 21 24 26 28 30 32 35 37
36 40 31 31 31 39 68 59 31 19 9 11 8 7 7 5 11 7 17 17 37 51 40 27 15 12 7 10 6 9 4 8 11 7 3 11 26 25 22 18 13 11 10 11 13 14 16 20 23 21 23 26 30 32
90 78 52 47 78 73 64 32 10 12 11 10 20 11 2 10 8 9 28 29 46 45 36 21 7 7 6 9 8 10 14 11 4 5 13 20 25 22 16 14 12 8 9 11 15 17 19 24 25 25 22 25 26 30
90 72 41 43 32 25 20 14 15 19 15 13 9 17 14 21 15 11 15 21 40 22 6 6 8 5 8 7 8 5 5 5 11 17 16 21 15 15 13 6 4 6 9 13 16 18 20 23 25 24 22 22 26 29
63 42 30 24 29 39 42 18 14 19 16 18 10 16 18 17 12 13 15 21 14 9 4 5 16 7 8 11 6 5 9 8 12 14 14 14 14 5 6 4 4 7 9 11 14 16 16 18 19 19 22 24 25 28
38 25 19 16 11 13 13 16 16 10 13 10 14 16 16 19 29 25 25 24 24 23 18 6 9 5 5 6 7 8 7 7 6 7 5 9 9 4 3 2 5 7 8 10 11 10 11 14 15 16 19 22 25 30
27 28 30 22 10 12 12 14 14 16 6 7 11 12 10 13 16 29 31 24 20 13 16 10 6 5 4 5 4 5 3 2 8 10 3 10 10 6 7 8 6 7 7 7 9 9 10 13 17 18 19 23 30 33
20 25 27 26 35 27 17 13 16 12 12 11 10 9 12 16 14 18 22 22 22 14 7 10 7 5 6 3 4 3 3 4 6 5 8 10 14 13 14 13 10 10 10 11 12 11 13 19 22 24 25 27 31 35
25 18 16 22 17 14 19 21 11 10 9 9 9 10 12 6 11 14 13 30 14 10 10 8 12 12 4 7 7 3 3 5 4 6 10 12 13 14 14 15 14 13 15 17 16 19 20 24 30 31 32 34 37 40
14 16 17 22 13 18 8 12 7 10 5 4 5 7 6 6 9 14 13 12 8 15 17 15 15 8 2 7 9 5 7 9 10 12 15 16 16 17 16 15 17 17 17 17 18 24 26 27 31 33 34 35 39 42
18 18 23 19 29 8 12 16 14 11 10 7 6 7 7 7 6 11 7 7 9 12 16 18 14 6 5 2 4 9 12 13 14 15 17 17 16 14 12 15 16 17 18 19 21 24 27 28 30 32 34 37 39 45
14 26 20 16 23 14 14 10 12 9 8 11 6 7 5 7 5 7 5 7 13 17 20 20 13 9 3 3 7 13 15 15 17 16 15 17 17 14 15 14 14 15 18 22 24 28 27 27 28 31 33 37 42 47
19 22 16 18 14 11 10 8 11 13 8 7 9 10 8 5 8 7 5 14 14 20 24 22 19 14 8 12 17 14 15 18 18 19 17 16 16 17 16 13 11 15 20 28 30 30 29 29 30 33 35 37 41 49
14 11 17 17 10 9 7 10 10 9 10 10 8 11 6 7 7 4 8 14 17 22 21 18 17 19 19 17 16 16 16 15 18 24 18 16 14 14 16 14 13 20 24 25 28 32 34 34 35 36 39 38 40 47
13 21 12 28 15 17 6 7 9 10 7 13 5 11 6 7 4 8 8 16 15 17 20 18 20 21 20 19 19 17 14 12 16 15 12 10 11 13 13 15 24 28 28 27 30 32 35 37 39 41 42 44 45 45
13 36 15 8 8 13 13 8 8 8 11 5 4 4 5 6 14 21 28 23 15 14 20 23 19 20 19 19 16 16 16 13 12 13 12 11 8 10 16 26 26 27 29 28 26 32 35 39 40 43 44 46 48 50
17 33 12 12 8 9 12 12 10 14 17 15 12 17 19 18 22 25 25 37 33 22 22 28 27 29 29 25 14 10 16 12 13 17 25 20 25 25 26 25 25 26 28 31 32 30 30 34 35 35 38 40 41 43
23 21 9 9 6 9 16 8 12 17 16 16 15 13 8 4 6 19 34 31 40 34 28 35 32 33 35 27 18 21 16 12 14 25 33 32 29 29 28 26 27 29 30 32 33 34 36 36 36 37 37 37 36 37
21 15 11 7 4 15 11 7 5 6 6 7 8 8 5 4 3 17 34 33 40 41 37 40 42 41 31 19 29 27 20 15 23 31 31 31 30 29 29 28 28 31 33 33 34 35 36 37 38 35 36 34 32 30
10 12 8 6 8 10 18 14 3 5 7 5 7 8 9 5 4 20 33 29 39 41 40 42 40 37 27 31 22 17 25 28 29 29 32 34 35 34 33 31 33 35 37 36 34 35 35 35 35 34 33 31 28 24
Wind_Direction_500mb
302 280 236 220 216 214 212 207 202 205 206 206 206 205 203 205 207 217 229 207 184 171 169 197 191 172 184 197 170 148 124 163 124 156 182 162 154 187 158 169 172 171 176 185 182 209 233 151 139 196 119 126 138 135
327 261 203 190 198 202 201 197 194 195 199 202 203 197 201 201 205 205 213 207 193 195 135 173 183 192 188 179 163 171 177 141 169 119 199 126 145 167 142 174 223 200 203 178 203 208 81 178 278 163 146 145 144 140
4 182 175 185 191 186 185 183 182 186 190 195 198 199 198 192 199 207 207 196 166 122 121 140 152 182 186 196 175 167 151 162 163 139 145 128 137 153 170 190 154 221 98 173 122 185 181 183 166 168 158 154 146 147
11 29 129 161 163 167 173 166 174 180 187 194 198 198 188 186 190 197 210 205 162 128 129 107 142 159 183 180 188 200 179 158 148 121 84 117 123 211 172 122 193 171 153 151 232 204 128 197 179 167 156 156 148 143
226 112 93 106 119 135 147 161 174 186 190 193 199 191 179 185 189 197 197 197 172 170 121 118 125 122 159 170 179 185 176 156 140 103 98 109 114 132 78 129 203 184 161 187 207 172 196 189 182 178 169 163 162 161
198 184 169 154 154 154 161 173 186 189 193 195 188 184 188 187 185 180 162 182 180 146 109 128 104 104 120 139 143 143 152 146 131 99 100 97 149 153 163 194 138 187 190 206 193 177 168 163 180 181 176 176 175 171
197 182 181 186 185 181 181 181 187 193 188 184 183 186 186 179 181 173 176 174 147 139 97 108 111 137 130 125 117 113 138 117 99 102 98 115 112 183 150 192 161 190 192 178 173 163 145 173 187 190 197 187 193 216
188 184 184 190 188 189 189 187 188 185 184 182 183 187 182 187 176 202 140 156 143 111 107 123 99 116 139 96 91 92 96 111 58 93 113 129 117 29 238 188 155 186 179 182 175 180 172 191 160 180 183 194 226 235
186 184 189 189 177 181 184 186 184 183 176 180 187 181 176 174 162 148 148 146 141 107 128 132 147 133 141 91 88 67 74 81 83 108 139 181 145 215 196 177 191 182 189 205 204 215 216 195 194 215 238 245 245 249
171 176 180 190 193 186 186 186 185 182 179 181 180 173 187 150 159 156 135 91 91 72 71 82 104 119 132 120 93 106 62 77 156 65 76 235 220 232 207 183 185 188 203 212 203 222 230 236 251 259 251 255 266 277
179 200 191 182 178 178 179 180 185 180 182 173 163 240 133 141 136 92 94 113 135 96 55 100 90 119 93 112 113 43 113 134 169 146 206 204 246 191 187 186 190 197 205 214 222 230 232 235 238 250 270 285 290 294
109 110 136 149 160 161 169 176 179 176 170 146 143 129 124 85 77 94 113 137 88 138 142 129 121 106 103 106 100 95 104 183 161 135 179 234 211 179 182 186 189 198 205 212 219 227 237 249 262 273 282 283 284 286
142 131 127 132 146 152 150 150 167 175 167 137 138 92 90 46 137 149 126 98 155 171 150 154 122 119 114 93 83 127 146 121 132 175 218 240 92 155 165 181 198 211 222 230 239 246 250 255 259 263 267 272 277 279
163 148 148 148 144 166 170 151 133 124 136 96 79 83 77 166 118 117 118 125 118 130 138 121 103 112 121 77 84 97 56 198 186 216 229 140 167 157 164 165 173 183 197 207 218 227 237 247 254 264 272 276 278 281
158 142 135 120 135 118 135 132 105 66 58 78 68 79 64 88 46 73 103 104 122 131 123 110 75 84 72 98 59 118 123 202 216 232 98 113 145 149 150 152 161 177 194 212 232 247 262 272 274 271 279 287 293 298
89 102 104 128 113 120 130 137 120 66 63 67 44 83 110 116 101 88 86 113 136 132 111 78 92 89 90 110 148 192 171 206 177 68 106 136 137 140 147 155 169 203 239 255 264 267 268 269 275 279 282 289 293 299
85 67 74 93 102 128 123 62 38 51 55 46 33 40 43 57 55 53 105 134 145 138 92 115 108 102 119 121 166 199 193 54 103 121 127 140 137 131 133 136 174 226 258 274 279 278 277 278 280 282 286 283 288 297
57 74 99 89 124 94 77 53 71 54 61 29 45 16 46 50 77 65 98 131 143 96 75 96 126 141 144 152 170 95 87 92 130 131 135 144 139 138 149 159 302 303 297 294 289 286 282 281 282 284 289 292 303 312
47 48 66 67 90 75 58 46 46 84 59 55 60 55 67 76 70 91 101 100 105 99 101 48 72 66 84 44 58 90 80 109 131 151 140 181 150 102 348 294 264 284 289 291 290 292 298 297 293 294 301 311 323 329
60 61 60 51 75 71 72 47 54 81 76 72 54 43 60 63 72 63 78 88 86 46 41 42 56 57 50 81 83 106 82 15 103 92 139 198 209 234 288 291 288 290 288 289 299 314 318 305 294 301 314 326 325 326
49 52 52 65 57 62 72 47 56 69 93 83 87 62 67 57 45 38 34 32 60 41 73 41 39 353 22 69 128 165 114 290 81 144 219 232 241 268 278 273 283 287 282 284 287 301 317 314 309 313 324 326 322 324
43 41 47 51 61 67 65 41 74 81 74 97 76 63 53 45 35 24 20 48 59 37 49 12 338 324 39 147 187 199 279 312 316 286 281 279 276 271 268 271 272 278 281 283 290 294 309 318 313 315 318 320 321 322
35 35 48 33 77 48 35 32 76 34 76 58 51 63 41 58 45 24 69 62 79 24 16 5 354 358 39 182 201 243 284 293 291 285 287 285 284 280 271 266 276 284 286 283 294 300 307 313 312 313 315 318 321 323
48 48 29 33 31 30 0 26 27 29 50 40 50 77 43 39 41 57 76 62 21 358 8 9 21 61 86 126 240 279 292 288 287 289 289 289 291 282 258 274 279 289 288 295 305 305 308 310 309 311 315 322 326 327
66 14 21 9 16 19 28 19 6 23 51 22 58 64 31 5 71 55 57 19 357 360 358 4 10 15 359 285 290 306 304 301 299 295 295 296 294 275 280 273 274 296 297 308 310 305 304 306 311 316 322 326 327 326
64 14 32 360 9 26 358 33 27 18 9 48 36 337 350 57 61 53 21 342 343 352 351 351 349 350 340 325 323 321 314 308 305 308 305 290 283 286 279 266 264 294 299 308 308 306 308 313 318 320 321 323 325 326
45 348 360 22 349 341 47 45 35 42 48 25 356 346 4 64 60 21 342 353 351 353 351 348 343 334 331 326 318 315 318 311 317 317 302 287 277 274 273 263 283 304 305 304 306 309 314 317 320 323 322 324 328 331
51 26 3 332 11 21 46 39 32 23 4 347 307 32 60 32 43 344 337 340 348 358 359 355 350 345 332 323 316 314 317 304 324 326 308 294 287 296 281 273 296 306 308 310 310 311 312 314 317 317 319 322 326 330
26 350 353 342 22 47 42 31 19 6 342 349 27 71 84 71 95 62 39 23 7 356 5 3 356 345 338 327 311 312 318 306 318 342 336 320 295 295 297 301 301 302 304 306 307 307 307 308 311 313 316 318 322 324
355 358 359 6 40 43 21 18 12 37 56 69 86 101 102 102 76 49 33 25 21 17 7 1 356 352 348 342 326 314 317 295 289 325 334 323 312 312 311 307 305 306 307 309 309 307 302 300 301 301 304 308 312 316
351 351 357 20 65 20 355 30 62 63 62 66 84 91 115 137 44 28 18 11 9 10 3 4 2 358 349 343 339 331 333 308 296 314 318 315 315 316 314 311 310 309 309 309 308 307 306 307 311 312 311 312 316 317
358 14 358 4 16 355 11 34 54 68 56 57 43 48 56 58 51 3 1 2 2 4 4 360 356 353 349 342 331 324 318 310 312 315 313 310 312 313 313 313 313 311 309 308 309 310 310 309 310 312 310 311 312 314
341 1 9 334 338 1 358 6 68 93 68 70 47 41 37 42 45 6 353 358 1 354 352 352 354 350 345 336 337 340 330 325 323 322 315 314 317 317 317 317 317 315 312 309 310 309 307 306 306 308 307 307 308 310
Wind_Speed_850mb
62 51 51 67 71 67 65 63 60 62 61 53 48 47 46 48 51 53 47 56 37 5 17 36 52 45 46 48 15 21 16 4 5 11 12 8 9 12 10 21 18 19 20 11 6 17 20 30 12 14 14 30 30 25
61 21 38 57 60 64 64 60 62 62 58 49 47 47 49 58 53 61 39 43 63 12 9 27 30 43 47 55 38 53 20 16 12 8 6 9 6 9 14 13 8 15 13 11 16 8 6 33 0 15 22 32 26 31
54 15 37 49 52 56 60 60 59 53 49 44 42 40 47 52 56 53 42 42 42 20 12 14 14 29 46 52 37 26 15 31 18 12 9 5 8 7 11 10 16 9 4 5 5 9 10 15 10 22 25 29 32 35
18 34 37 29 60 52 64 55 51 46 42 41 41 45 50 53 55 59 44 42 42 29 7 7 20 21 33 38 46 33 29 26 28 14 8 5 5 5 8 6 10 6 21 11 3 1 5 10 13 27 33 42 45 36
5 12 19 28 37 38 41 42 39 39 41 42 44 50 42 44 53 45 42 57 62 17 7 15 24 14 23 28 31 31 38 35 17 7 4 4 9 8 3 4 9 14 10 15 11 23 13 22 30 36 47 49 41 35
15 17 20 20 23 28 31 33 37 40 41 47 52 52 52 47 52 45 12 61 55 31 19 7 9 18 27 31 38 39 35 29 14 9 7 7 8 3 8 8 6 19 18 14 7 26 17 24 37 43 51 44 34 28
21 19 20 24 29 32 34 34 35 42 44 49 52 54 55 55 62 31 9 39 57 42 16 8 8 16 37 35 27 22 25 14 10 11 6 7 6 6 6 7 9 22 19 15 19 27 14 29 28 43 44 29 23 19
26 25 22 23 30 42 41 39 38 41 48 54 50 49 60 57 57 33 3 70 52 27 14 8 6 7 17 10 8 11 9 12 11 8 8 6 8 1 7 6 10 17 21 22 27 16 11 26 17 34 27 25 21 20
27 31 29 30 32 42 45 42 41 42 45 49 43 41 55 57 34 26 70 62 40 14 8 5 14 9 19 11 10 9 8 6 6 3 6 9 6 10 6 19 32 31 33 31 31 27 21 18 20 21 20 20 22 24
22 25 32 31 35 41 42 43 42 41 40 42 41 33 13 43 65 84 31 10 9 5 7 6 3 8 10 10 6 7 8 5 4 4 3 3 6 5 9 17 23 24 29 23 19 26 29 29 28 22 20 20 22 26
18 21 29 32 34 41 42 47 44 43 49 44 24 5 76 83 53 11 8 5 6 6 7 7 6 14 9 8 7 6 6 3 9 6 7 6 7 10 27 30 28 29 30 30 28 30 28 28 27 27 27 32 36 42
12 28 37 39 42 45 48 49 47 39 29 29 41 51 46 12 13 11 5 6 6 9 7 9 13 15 13 12 8 4 6 4 7 8 6 6 8 20 38 37 33 31 30 26 24 23 24 25 29 35 40 45 47 47
19 27 34 38 35 35 39 38 52 38 46 81 35 7 8 5 6 10 10 6 9 11 17 19 13 13 11 12 9 5 7 4 9 7 8 5 8 18 24 26 29 29 27 25 24 26 29 31 34 37 38 39 42 45
27 30 29 28 31 20 33 34 57 58 26 8 7 10 2 5 2 4 7 12 11 33 44 37 16 6 8 8 4 8 4 5 8 8 10 6 18 25 23 23 23 19 19 19 18 18 21 24 26 28 30 32 35 37
36 40 31 31 31 39 68 59 31 19 9 11 8 7 7 5 11 7 17 17 37 51 40 27 15 12 7 10 6 9 4 8 11 7 3 11 26 25 22 18 13 11 10 11 13 14 16 20 23 21 23 26 30 32
90 78 52 47 78 73 64 32 10 12 11 10 20 11 2 10 8 9 28 29 46 45 36 21 7 7 6 9 8 10 14 11 4 5 13 20 25 22 16 14 12 8 9 11 15 17 19 24 25 25 22 25 26 30
90 72 41 43 32 25 20 14 15 19 15 13 9 17 14 21 15 11 15 21 40 22 6 6 8 5 8 7 8 5 5 5 11 17 16 21 15 15 13 6 4 6 9 13 16 18 20 23 25 24 22 22 26 29
63 42 30 24 29 39 42 18 14 19 16 18 10 16 18 17 12 13 15 21 14 9 4 5 16 7 8 11 6 5 9 8 12 14 14 14 14 5 6 4 4 7 9 11 14 16 16 18 19 19 22 24 25 28
38 25 19 16 11 13 13 16 16 10 13 10 14 16 16 19 29 25 25 24 24 23 18 6 9 5 5 6 7 8 7 7 6 7 5 9 9 4 3 2 5 7 8 10 11 10 11 14 15 16 19 22 25 30
27 28 30 22 10 12 12 14 14 16 6 7 11 12 10 13 16 29 31 24 20 13 16 10 6 5 4 5 4 5 3 2 8 10 3 10 10 6 7 8 6 7 7 7 9 9 10 13 17 18 19 23 30 33
20 25 27 26 35 27 17 13 16 12 12 11 10 9 12 16 14 18 22 22 22 14 7 10 7 5 6 3 4 3 3 4 6 5 8 10 14 13 14 13 10 10 10 11 12 11 13 19 22 24 25 27 31 35
25 18 16 22 17 14 19 21 11 10 9 9 9 10 12 6 11 14 13 30 14 10 10 8 12 12 4 7 7 3 3 5 4 6 10 12 13 14 14 15 14 13 15 17 16 19 20 24 30 31 32 34 37 40
14 16 17 22 13 18 8 12 7 10 5 4 5 7 6 6 9 14 13 12 8 15 17 15 15 8 2 7 9 5 7 9 10 12 15 16 16 17 16 15 17 17 17 17 18 24 26 27 31 33 34 35 39 42
18 18 23 19 29 8 12 16 14 11 10 7 6 7 7 7 6 11 7 7 9 12 16 18 14 6 5 2 4 9 12 13 14 15 17 17 16 14 12 15 16 17 18 19 21 24 27 28 30 32 34 37 39 45
14 26 20 16 23 14 14 10 12 9 8 11 6 7 5 7 5 7 5 7 13 17 20 20 13 9 3 3 7 13 15 15 17 16 15 17 17 14 15 14 14 15 18 22 24 28 27 27 28 31 33 37 42 47
19 22 16 18 14 11 10 8 11 13 8 7 9 10 8 5 8 7 5 14 14 20 24 22 19 14 8 12 17 14 15 18 18 19 17 16 16 17 16 13 11 15 20 28 30 30 29 29 30 33 35 37 41 49
14 11 17 17 10 9 7 10 10 9 10 10 8 11 6 7 7 4 8 14 17 22 21 18 17 19 19 17 16 16 16 15 18 24 18 16 14 14 16 14 13 20 24 25 28 32 34 34 35 36 39 38 40 47
13 21 12 28 15 17 6 7 9 10 7 13 5 11 6 7 4 8 8 16 15 17 20 18 20 21 20 19 19 17 14 12 16 15 12 10 11 13 13 15 24 28 28 27 30 32 35 37 39 41 42 44 45 45
13 36 15 8 8 13 13 8 8 8 11 5 4 4 5 6 14 21 28 23 15 14 20 23 19 20 19 19 16 16 16 13 12 13 12 11 8 10 16 26 26 27 29 28 26 32 35 39 40 43 44 46 48 50
17 33 12 12 8 9 12 12 10 14 17 15 12 17 19 18 22 25 25 37 33 22 22 28 27 29 29 25 14 10 16 12 13 17 25 20 25 25 26 25 25 26 28 31 32 30 30 34 35 35 38 40 41 43
23 21 9 9 6 9 16 8 12 17 16 16 15 13 8 4 6 19 34 31 40 34 28 35 32 33 35 27 18 21 16 12 14 25 33 32 29 29 28 26 27 29 30 32 33 34 36 36 36 37 37 37 36 37
21 15 11 7 4 15 11 7 5 6 6 7 8 8 5 4 3 17 34 33 40 41 37 40 42 41 31 19 29 27 20 15 23 31 31 31 30 29 29 28 28 31 33 33 34 35 36 37 38 35 36 34 32 30
10 12 8 6 8 10 18 14 3 5 7 5 7 8 9 5 4 20 33 29 39 41 40 42 40 37 27 31 22 17 25 28 29 29 32 34 35 34 33 31 33 35 37 36 34 35 35 35 35 34 33 31 28 24
Wind_Direction_850mb
302 280 236 220 216 214 212 207 202 205 206 206 206 205 203 205 207 217 229 207 184 171 169 197 191 172 184 197 170 148 124 163 124 156 182 162 154 187 158 169 172 171 176 185 182 209 233 151 139 196 119 126 138 135
327 261 203 190 198 202 201 197 194 195 199 202 203 197 201 201 205 205 213 207 193 195 135 173 183 192 188 179 163 171 177 141 169 119 199 126 145 167 142 174 223 200 203 178 203 208 81 178 278 163 146 145 144 140
4 182 175 185 191 186 185 183 182 186 190 195 198 199 198 192 199 207 207 196 166 122 121 140 152 182 186 196 175 167 151 162 163 139 145 128 137 153 170 190 154 221 98 173 122 185 181 183 166 168 158 154 146 147
11 29 129 161 163 167 173 166 174 180 187 194 198 198 188 186 190 197 210 205 162 128 129 107 142 159 183 180 188 200 179 158 148 121 84 117 123 211 172 122 193 171 153 151 232 204 128 197 179 167 156 156 148 143
226 112 93 106 119 135 147 161 174 186 190 193 199 191 179 185 189 197 197 197 172 170 121 118 125 122 159 170 179 185 176 156 140 103 98 109 114 132 78 129 203 184 161 187 207 172 196 189 182 178 169 163 162 161
198 184 169 154 154 154 161 173 186 189 193 195 188 184 188 187 185 180 162 182 180 146 109 128 104 104 120 139 143 143 152 146 131 99 100 97 149 153 163 194 138 187 190 206 193 177 168 163 180 181 176 176 175 171
197 182 181 186 185 181 181 181 187 193 188 184 183 186 186 179 181 173 176 174 147 139 97 108 111 137 130 125 117 113 138 117 99 102 98 115 112 183 150 192 161 190 192 178 173 163 145 173 187 190 197 187 193 216
188 184 184 190 188 189 189 187 188 185 184 182 183 187 182 187 176 202 140 156 143 111 107 123 99 116 139 96 91 92 96 111 58 93 113 129 117 29 238 188 155 186 179 182 175 180 172 191 160 180 183 194 226 235
186 184 189 189 177 181 184 186 184 183 176 180 187 181 176 174 162 148 148 146 141 107 128 132 147 133 141 91 88 67 74 81 83 108 139 181 145 215 196 177 191 182 189 205 204 215 216 195 194 215 238 245 245 249
171 176 180 190 193 186 186 186 185 182 179 181 180 173 187 150 159 156 135 91 91 72 71 82 104 119 132 120 93 106 62 77 156 65 76 235 220 232 207 183 185 188 203 212 203 222 230 236 251 259 251 255 266 277
179 200 191 182 178 178 179 180 185 180 182 173 163 240 133 141 136 92 94 113 135 96 55 100 90 119 93 112 113 43 113 134 169 146 206 204 246 191 187 186 190 197 205 214 222 230 232 235 238 250 270 285 290 294
109 110 136 149 160 161 169 176 179 176 170 146 143 129 124 85 77 94 113 137 88 138 142 129 121 106 103 106 100 95 104 183 161 135 179 234 211 179 182 186 189 198 205 212 219 227 237 249 262 273 282 283 284 286
142 131 127 132 146 152 150 150 167 175 167 137 138 92 90 46 137 149 126 98 155 171 150 154 122 119 114 93 83 127 146 121 132 175 218 240 92 155 165 181 198 211 222 230 239 246 250 255 259 263 267 272 277 279
163 148 148 148 144 166 170 151 133 124 136 96 79 83 77 166 118 117 118 125 118 130 138 121 103 112 121 77 84 97 56 198 186 216 229 140 167 157 164 165 173 183 197 207 218 227 237 247 254 264 272 276 278 281
158 142 135 120 135 118 135 132 105 66 58 78 68 79 64 88 46 73 103 104 122 131 123 110 75 84 72 98 59 118 123 202 216 232 98 113 145 149 150 152 161 177 194 212 232 247 262 272 274 271 279 287 293 298
89 102 104 128 113 120 130 137 120 66 63 67 44 83 110 116 101 88 86 113 136 132 111 78 92 89 90 110 148 192 171 206 177 68 106 136 137 140 147 155 169 203 239 255 264 267 268 269 275 279 282 289 293 299
85 67 74 93 102 128 123 62 38 51 55 46 33 40 43 57 55 53 105 134 145 138 92 115 108 102 119 121 166 199 193 54 103 121 127 140 137 131 133 136 174 226 258 274 279 278 277 278 280 282 286 283 288 297
57 74 99 89 124 94 77 53 71 54 61 29 45 16 46 50 77 65 98 131 143 96 75 96 126 141 144 152 170 95 87 92 130 131 135 144 139 138 149 159 302 303 297 294 289 286 282 281 282 284 289 292 303 312
47 48 66 67 90 75 58 46 46 84 59 55 60 55 67 76 70 91 101 100 105 99 101 48 72 66 84 44 58 90 80 109 131 151 140 181 150 102 348 294 264 284 289 291 290 292 298 297 293 294 301 311 323 329
60 61 60 51 75 71 72 47 54 81 76 72 54 43 60 63 72 63 78 88 86 46 41 42 56 57 50 81 83 106 82 15 103 92 139 198 209 234 288 291 288 290 288 289 299 314 318 305 294 301 314 326 325 326
49 52 52 65 57 62 72 47 56 69 93 83 87 62 67 57 45 38 34 32 60 41 73 41 39 353 22 69 128 165 114 290 81 144 219 232 241 268 278 273 283 287 282 284 287 301 317 314 309 313 324 326 322 324
43 41 47 51 61 67 65 41 74 81 74 97 76 63 53 45 35 24 20 48 59 37 49 12 338 324 39 147 187 199 279 312 316 286 281 279 276 271 268 271 272 278 281 283 290 294 309 318 313 315 318 320 321 322
35 35 48 33 77 48 35 32 76 34 76 58 51 63 41 58 45 24 69 62 79 24 16 5 354 358 39 182 201 243 284 293 291 285 287 285 284 280 271 266 276 284 286 283 294 300 307 313 312 313 315 318 321 323
48 48 29 33 31 30 0 26 27 29 50 40 50 77 43 39 41 57 76 62 21 358 8 9 21 61 86 126 240 279 292 288 287 289 289 289 291 282 258 274 279 289 288 295 305 305 308 310 309 311 315 322 326 327
66 14 21 9 16 19 28 19 6 23 51 22 58 64 31 5 71 55 57 19 357 360 358 4 10 15 359 285 290 306 304 301 299 295 295 296 294 275 280 273 274 296 297 308 310 305 304 306 311 316 322 326 327 326
64 14 32 360 9 26 358 33 27 18 9 48 36 337 350 57 61 53 21 342 343 352 351 351 349 350 340 325 323 321 314 308 305 308 305 290 283 286 279 266 264 294 299 308 308 306 308 313 318 320 321 323 325 326
45 348 360 22 349 341 47 45 35 42 48 25 356 346 4 64 60 21 342 353 351 353 351 348 343 334 331 326 318 315 318 311 317 317 302 287 277 274 273 263 283 304 305 304 306 309 314 317 320 323 322 324 328 331
51 26 3 332 11 21 46 39 32 23 4 347 307 32 60 32 43 344 337 340 348 358 359 355 350 345 332 323 316 314 317 304 324 326 308 294 287 296 281 273 296 306 308 310 310 311 312 314 317 317 319 322 326 330
26 350 353 342 22 47 42 31 19 6 342 349 27 71 84 71 95 62 39 23 7 356 5 3 356 345 338 327 311 312 318 306 318 342 336 320 295 295 297 301 301 302 304 306 307 307 307 308 311 313 316 318 322 324
355 358 359 6 40 43 21 18 12 37 56 69 86 101 102 102 76 49 33 25 21 17 7 1 356 352 348 342 326 314 317 295 289 325 334 323 312 312 311 307 305 306 307 309 309 307 302 300 301 301 304 308 312 316
351 351 357 20 65 20 355 30 62 63 62 66 84 91 115 137 44 28 18 11 9 10 3 4 2 358 349 343 339 331 333 308 296 314 318 315 315 316 314 311 310 309 309 309 308 307 306 307 311 312 311 312 316 317
358 14 358 4 16 355 11 34 54 68 56 57 43 48 56 58 51 3 1 2 2 4 4 360 356 353 349 342 331 324 318 310 312 315 313 310 312 313 313 313 313 311 309 308 309 310 310 309 310 312 310 311 312 314
341 1 9 334 338 1 358 6 68 93 68 70 47 41 37 42 45 6 353 358 1 354 352 352 354 350 345 336 337 340 330 325 323 322 315 314 317 317 317 317 317 315 312 309 310 309 307 306 306 308 307 307 308 310